GW3247 Weather Reports


Display with metric or nautical units.
time (UTC)temp
F
wind
direction
speed
MPH
gust
MPH
rain 1hr
in
rain 24hr
in
rain mn
in
humidity
%
barometer
mb
20260901031522 58 217 2.0 5.0 0.09 0.70 0.09 93 1008.4
20260901030015 58 216 2.0 5.0 0.07 0.69 0.07 93 1008.3
20260901024515 58 247 2.0 6.0 0.02 0.63 0.02 92 1008.2
20260901023014 58 226 3.0 8.0 0.00 0.61 0.00 92 1008.3
20260901021523 58 198 4.0 7.0 0.00 0.61 0.00 93 1008.1
20260901020014 58 211 3.0 7.0 0.00 0.61 0.00 92 1008.1
20260901014511 58 208 2.0 5.0 0.00 0.61 0.00 92 1008.0
20260901013010 58 198 2.0 6.0 0.00 0.61 0.00 92 1007.9
20260901011512 58 220 3.0 6.0 0.00 0.61 0.00 92 1007.9
20260901010022 59 207 3.0 7.0 0.00 0.61 0.00 92 1007.9
20260901004505 59 214 3.0 6.0 0.00 0.61 0.00 92 1007.9
20260901003004 59 207 3.0 8.0 0.00 0.61 0.00 91 1007.8
20260901001503 59 184 3.0 6.0 0.00 0.61 0.00 91 1007.8
20260901000001 59 207 2.0 5.0 0.00 0.61 0.00 91 1007.7
20260831234501 59 204 2.0 5.0 0.00 0.61 0.00 91 1007.6
20260831233100 59 184 3.0 5.0 0.00 0.61 0.00 91 1007.7
20260831231610 60 233 3.0 6.0 0.00 0.61 0.00 91 1007.8
20260831230052 60 229 3.0 6.0 0.00 0.61 0.00 91 1007.7
20260831224547 60 230 1.0 8.0 0.00 0.61 0.00 91 1007.6
20260831223045 60 217 3.0 7.0 0.00 0.61 0.00 91 1007.7
20260831221544 60 245 2.0 7.0 0.00 0.61 0.00 91 1007.8
20260831220036 59 205 3.0 7.0 0.00 0.61 0.00 91 1007.8
20260831214535 59 225 3.0 7.0 0.00 0.61 0.61 91 1007.7
20260831213042 59 212 3.0 7.0 0.00 0.61 0.61 91 1007.6
20260831211535 60 190 3.0 7.0 0.00 0.61 0.61 91 1007.4
20260831210033 59 216 3.0 6.0 0.00 0.61 0.61 91 1007.4
20260831204534 59 230 2.0 6.0 0.00 0.61 0.61 91 1007.4
20260831203034 59 187 2.0 6.0 0.00 0.61 0.61 91 1007.3
20260831201537 59 223 2.0 5.0 0.00 0.61 0.61 91 1007.4
20260831200030 60 219 2.0 4.0 0.00 0.61 0.61 91 1007.2
20260831194557 60 210 1.0 3.0 0.00 0.61 0.61 91 1007.2
20260831193029 60 231 1.0 5.0 0.00 0.61 0.61 91 1007.3
20260831191528 59 198 1.0 4.0 0.00 0.61 0.61 91 1007.0
20260831190034 59 145 1.0 3.0 0.00 0.61 0.61 90 1006.9
20260831184526 60 150 0.0 3.0 0.00 0.61 0.61 90 1006.8
20260831183026 60 198 1.0 3.0 0.00 0.61 0.61 90 1006.8
20260831181525 61 209 1.0 3.0 0.00 0.61 0.61 90 1006.8
20260831180025 61 230 0.0 2.0 0.00 0.61 0.61 89 1006.8
20260831174534 62 230 0.0 2.0 0.00 0.61 0.61 89 1006.7
20260831173023 63 145 1.0 3.0 0.00 0.61 0.61 90 1006.6
20260831171530 63 142 0.0 3.0 0.01 0.61 0.61 91 1006.6
20260831170022 62 199 1.0 3.0 0.01 0.61 0.61 91 1006.5
20260831164521 62 208 1.0 2.0 0.01 0.61 0.61 91 1006.8
20260831163121 62 232 1.0 5.0 0.02 0.61 0.61 91 1006.8
20260831161520 62 238 1.0 3.0 0.01 0.61 0.61 92 1006.6
20260831160020 62 224 1.0 3.0 0.01 0.61 0.61 92 1006.3
20260831154527 62 197 3.0 8.0 0.01 0.61 0.61 91 1006.5
20260831153021 63 226 1.0 8.0 0.00 0.61 0.60 93 1006.4
20260831151517 64 231 2.0 5.0 0.00 0.61 0.60 93 1006.5
20260831150016 64 145 0.0 4.0 0.00 0.61 0.60 93 1006.4
20260831144515 63 136 2.0 5.0 0.00 0.61 0.60 93 1006.6
20260831143015 63 145 3.0 6.0 0.02 0.61 0.60 94 1006.6
20260831141516 62 91 4.0 8.0 0.28 0.61 0.60 93 1006.6
20260831140013 62 96 5.0 9.0 0.28 0.61 0.60 93 1006.8
20260831134513 61 118 6.0 9.0 0.43 0.61 0.60 93 1006.8
20260831133012 62 118 2.0 7.0 0.38 0.56 0.54 93 1006.6
20260831131515 62 63 2.0 10.0 0.16 0.34 0.32 93 1006.6
20260831130008 63 162 6.0 9.0 0.14 0.32 0.31 93 1006.7
20260831124509 63 116 6.0 11.0 0.00 0.39 0.17 93 1006.5
20260831123007 64 111 6.0 12.0 0.00 0.39 0.17 92 1006.4
20260831121506 64 127 7.0 10.0 0.00 0.39 0.17 92 1006.6
20260831120006 64 138 4.0 9.0 0.06 0.39 0.17 93 1006.9
20260831114509 63 129 4.0 7.0 0.14 0.43 0.17 93 1006.8
20260831113005 61 128 4.0 6.0 0.14 0.43 0.17 93 1006.8
20260831111503 62 150 5.0 17.0 0.14 0.43 0.17 90 1007.1
20260831110002 64 189 6.0 14.0 0.07 0.36 0.09 87 1007.4
20260831104503 64 141 5.0 13.0 0.00 0.28 0.02 87 1007.0
20260831103000 65 136 8.0 13.0 0.00 0.28 0.02 88 1007.0
20260831101558 64 162 6.0 12.0 0.00 0.28 0.02 90 1007.0
20260831100117 63 150 6.0 11.0 0.00 0.28 0.02 90 1007.2
20260831094554 63 115 6.0 11.0 0.00 0.28 0.02 90 1007.2
20260831093054 62 150 8.0 14.0 0.01 0.28 0.02 90 1007.5
20260831091556 62 154 5.0 11.0 0.02 0.28 0.02 90 1007.7
20260831090049 62 143 4.0 9.0 0.02 0.28 0.02 90 1007.8
20260831084621 62 111 5.0 9.0 0.02 0.28 0.02 89 1007.9
20260831083052 62 131 3.0 8.0 0.02 0.28 0.02 88 1007.9
20260831081546 62 135 5.0 9.0 0.00 0.27 0.00 86 1008.0
20260831080043 62 131 2.0 5.0 0.00 0.27 0.00 86 1008.0
20260831074557 62 133 3.0 6.0 0.00 0.27 0.00 86 1008.0
20260831073042 62 148 2.0 6.0 0.00 0.27 0.00 87 1008.2
20260831071549 62 201 2.0 4.0 0.00 0.27 0.00 87 1008.3
20260831070040 61 155 1.0 5.0 0.00 0.27 0.00 88 1008.1
20260831064539 61 200 3.0 6.0 0.00 0.35 0.00 89 1008.1
20260831063035 61 140 2.0 3.0 0.00 0.35 0.00 90 1008.0
20260831061533 60 151 2.0 5.0 0.00 0.35 0.00 91 1008.1
20260831060028 60 148 1.0 4.0 0.00 0.35 0.00 91 1008.0
20260831054526 60 169 2.0 7.0 0.00 0.36 0.00 91 1008.4
20260831053026 59 151 1.0 4.0 0.00 0.36 0.00 92 1008.3
20260831051525 59 202 1.0 4.0 0.00 0.36 0.00 92 1008.3
20260831050030 58 176 3.0 5.0 0.00 0.36 0.00 92 1008.6
20260831044524 58 210 1.0 6.0 0.00 0.36 0.00 92 1008.5
20260831043033 58 212 2.0 7.0 0.00 0.36 0.00 92 1008.3
20260831041522 58 221 2.0 6.0 0.00 0.36 0.00 92 1008.3
20260831040021 58 216 3.0 6.0 0.00 0.36 0.00 92 1008.3
20260831034521 59 162 2.0 6.0 0.00 0.36 0.00 91 1008.2
20260831033021 59 217 3.0 7.0 0.00 0.36 0.00 91 1008.3